MTN001 KDEN-KSGF

Flight info

Callsign MTN001
Flight time 1h 20m
Altitude 33000
Route EXTAN7 SHAYK KK54C SGF
Aircraft CRJ7/M-SDFGIRWY/S

Departure

Time 2026-04-21 13:41
Airport Denver International Airport (KDEN)

Arrival

Time 2026-04-21 15:01
Airport Springfield Branson National Airport (KSGF)
Time Latitude Longitude Altitude Speed Heading
2026-04-21 12:53 39.85747 -104.66557 5364 ft 0 kts 340°
2026-04-21 13:21 39.85728 -104.66549 5362 ft 4 kts 344°
2026-04-21 13:22 39.85707 -104.66540 5363 ft 0 kts 340°
2026-04-21 13:30 39.85706 -104.66540 5364 ft 0 kts 340°
2026-04-21 13:32 39.85714 -104.66540 5363 ft 2 kts 14°
2026-04-21 13:32 39.85745 -104.66526 5363 ft 5 kts 20°
2026-04-21 13:33 39.85783 -104.66507 5364 ft 7 kts 21°
2026-04-21 13:33 39.85833 -104.66487 5364 ft 8 kts
2026-04-21 13:33 39.85900 -104.66486 5364 ft 11 kts 360°
2026-04-21 13:33 39.85981 -104.66483 5362 ft 12 kts
2026-04-21 13:34 39.86018 -104.66416 5364 ft 9 kts 88°
2026-04-21 13:34 39.86019 -104.66332 5364 ft 9 kts 90°
2026-04-21 13:34 39.86028 -104.66256 5363 ft 8 kts 54°
2026-04-21 13:34 39.86075 -104.66229 5363 ft 7 kts
2026-04-21 13:35 39.86125 -104.66228 5364 ft 7 kts
2026-04-21 13:35 39.86176 -104.66227 5364 ft 8 kts
2026-04-21 13:35 39.86236 -104.66226 5364 ft 9 kts
2026-04-21 13:35 39.86321 -104.66226 5364 ft 15 kts
2026-04-21 13:36 39.86426 -104.66225 5362 ft 15 kts
2026-04-21 13:36 39.86527 -104.66223 5364 ft 14 kts
2026-04-21 13:36 39.86625 -104.66221 5364 ft 14 kts
2026-04-21 13:36 39.86718 -104.66220 5364 ft 13 kts
2026-04-21 13:37 39.86808 -104.66220 5364 ft 13 kts
2026-04-21 13:37 39.86895 -104.66219 5364 ft 12 kts
2026-04-21 13:37 39.86978 -104.66217 5364 ft 12 kts
2026-04-21 13:37 39.87058 -104.66216 5364 ft 11 kts
2026-04-21 13:38 39.87140 -104.66215 5364 ft 12 kts
2026-04-21 13:38 39.87231 -104.66214 5364 ft 14 kts
2026-04-21 13:38 39.87324 -104.66213 5364 ft 13 kts
2026-04-21 13:38 39.87414 -104.66212 5364 ft 13 kts
2026-04-21 13:39 39.87500 -104.66210 5364 ft 12 kts
2026-04-21 13:39 39.87583 -104.66209 5364 ft 12 kts
2026-04-21 13:39 39.87663 -104.66207 5364 ft 11 kts
2026-04-21 13:39 39.87737 -104.66201 5365 ft 9 kts 33°
2026-04-21 13:40 39.87760 -104.65995 5363 ft 51 kts 90°
2026-04-21 13:40 39.87756 -104.65240 5364 ft 115 kts 90°
2026-04-21 13:40 39.87745 -104.63955 5358 ft 166 kts 91°
2026-04-21 13:40 39.87740 -104.62399 5813 ft 174 kts 91°
2026-04-21 13:41 39.87711 -104.60805 6445 ft 179 kts 94°
2026-04-21 13:41 39.87578 -104.59163 6996 ft 184 kts 101°
2026-04-21 13:41 39.87168 -104.57585 7456 ft 196 kts 118°
2026-04-21 13:41 39.86428 -104.55931 7672 ft 229 kts 121°
2026-04-21 13:42 39.85606 -104.54016 8108 ft 254 kts 117°
2026-04-21 13:42 39.85080 -104.52572 8497 ft 268 kts 114°
2026-04-21 13:42 39.84332 -104.50305 9139 ft 284 kts 113°
2026-04-21 13:42 39.83529 -104.47851 9668 ft 308 kts 114°
2026-04-21 13:43 39.82611 -104.45158 9903 ft 342 kts 114°
2026-04-21 13:43 39.81589 -104.42191 10006 ft 374 kts 114°
2026-04-21 13:43 39.80703 -104.38965 10021 ft 384 kts 99°
2026-04-21 13:43 39.80619 -104.35477 10169 ft 387 kts 88°
2026-04-21 13:44 39.80700 -104.31983 10511 ft 384 kts 91°
2026-04-21 13:44 39.80507 -104.28553 11065 ft 376 kts 97°
2026-04-21 13:44 39.80131 -104.25278 11726 ft 364 kts 99°
2026-04-21 13:44 39.79723 -104.22065 12264 ft 359 kts 99°
2026-04-21 13:45 39.79337 -104.18841 12569 ft 361 kts 98°
2026-04-21 13:45 39.78971 -104.15605 12866 ft 363 kts 98°
2026-04-21 13:45 39.78602 -104.12356 13166 ft 364 kts 98°
2026-04-21 13:45 39.78228 -104.09081 13462 ft 366 kts 98°
2026-04-21 13:46 39.77868 -104.05792 13752 ft 368 kts 98°
2026-04-21 13:46 39.77515 -104.02490 14031 ft 370 kts 98°
2026-04-21 13:46 39.77165 -103.99170 14331 ft 371 kts 98°
2026-04-21 13:46 39.76809 -103.95835 14626 ft 373 kts 98°
2026-04-21 13:47 39.76446 -103.92494 14915 ft 374 kts 98°
2026-04-21 13:47 39.76051 -103.89143 15193 ft 375 kts 99°
2026-04-21 13:47 39.75638 -103.85789 15453 ft 377 kts 99°
2026-04-21 13:47 39.75214 -103.82414 15724 ft 378 kts 99°
2026-04-21 13:48 39.74789 -103.79041 15983 ft 379 kts 99°
2026-04-21 13:48 39.74380 -103.75688 16226 ft 381 kts 98°
2026-04-21 13:48 39.74018 -103.72283 16466 ft 382 kts 96°
2026-04-21 13:48 39.73740 -103.68838 16709 ft 383 kts 95°
2026-04-21 13:49 39.73487 -103.65386 16942 ft 384 kts 95°
2026-04-21 13:49 39.73220 -103.61929 17171 ft 385 kts 95°
2026-04-21 13:49 39.72943 -103.58451 17399 ft 387 kts 95°
2026-04-21 13:49 39.72664 -103.54965 17619 ft 388 kts 95°
2026-04-21 13:50 39.72382 -103.51484 17835 ft 389 kts 95°
2026-04-21 13:50 39.72104 -103.47982 18045 ft 390 kts 95°
2026-04-21 13:50 39.71825 -103.44472 18253 ft 391 kts 95°
2026-04-21 13:50 39.71538 -103.40950 18439 ft 392 kts 95°
2026-04-21 13:51 39.71256 -103.37466 18854 ft 393 kts 95°
2026-04-21 13:51 39.70970 -103.33918 19340 ft 396 kts 95°
2026-04-21 13:51 39.70677 -103.30354 19816 ft 398 kts 96°
2026-04-21 13:51 39.70381 -103.26755 20282 ft 401 kts 96°
2026-04-21 13:52 39.70085 -103.23145 20721 ft 403 kts 96°
2026-04-21 13:52 39.69785 -103.19509 21149 ft 406 kts 96°
2026-04-21 13:52 39.69482 -103.15851 21568 ft 408 kts 96°
2026-04-21 13:52 39.69180 -103.12209 21968 ft 411 kts 96°
2026-04-21 13:53 39.68868 -103.08510 22363 ft 413 kts 96°
2026-04-21 13:53 39.68556 -103.04783 22751 ft 416 kts 96°
2026-04-21 13:53 39.68240 -103.01031 23134 ft 418 kts 96°
2026-04-21 13:53 39.67923 -102.97263 23505 ft 421 kts 96°
2026-04-21 13:54 39.67603 -102.93470 23818 ft 423 kts 96°
2026-04-21 13:54 39.67277 -102.89663 24118 ft 425 kts 96°
2026-04-21 13:54 39.66952 -102.85843 24433 ft 427 kts 96°
2026-04-21 13:54 39.66620 -102.82009 24732 ft 429 kts 96°
2026-04-21 13:55 39.66288 -102.78154 25030 ft 430 kts 96°
2026-04-21 13:55 39.65959 -102.74325 25309 ft 432 kts 96°
2026-04-21 13:55 39.65623 -102.70440 25575 ft 434 kts 96°
2026-04-21 13:55 39.65283 -102.66542 25842 ft 436 kts 96°
2026-04-21 13:56 39.64938 -102.62620 26092 ft 438 kts 95°
2026-04-21 13:56 39.64592 -102.58684 26343 ft 440 kts 95°
2026-04-21 13:56 39.64244 -102.54730 26587 ft 442 kts 95°
2026-04-21 13:56 39.63896 -102.50762 26829 ft 444 kts 95°
2026-04-21 13:57 39.63540 -102.46765 27075 ft 445 kts 95°
2026-04-21 13:57 39.63186 -102.42766 27307 ft 447 kts 95°
2026-04-21 13:57 39.62822 -102.38748 27533 ft 449 kts 95°
2026-04-21 13:57 39.62461 -102.34713 27755 ft 451 kts 95°
2026-04-21 13:58 39.62101 -102.30718 27973 ft 452 kts 95°
2026-04-21 13:58 39.61727 -102.26611 28189 ft 454 kts 95°
2026-04-21 13:58 39.61365 -102.22600 28469 ft 453 kts 95°
2026-04-21 13:58 39.60993 -102.18539 28766 ft 453 kts 95°
2026-04-21 13:59 39.60620 -102.14477 29057 ft 453 kts 95°
2026-04-21 13:59 39.60245 -102.10406 29331 ft 453 kts 95°
2026-04-21 13:59 39.59871 -102.06349 29627 ft 452 kts 95°
2026-04-21 13:59 39.59496 -102.02301 29900 ft 451 kts 95°
2026-04-21 14:00 39.59158 -101.98304 30148 ft 451 kts 94°
2026-04-21 14:00 39.58847 -101.94258 30376 ft 450 kts 94°
2026-04-21 14:00 39.58528 -101.90227 30616 ft 449 kts 94°
2026-04-21 14:00 39.58212 -101.86204 30832 ft 448 kts 94°
2026-04-21 14:01 39.57889 -101.82177 31050 ft 448 kts 94°
2026-04-21 14:01 39.57566 -101.78167 31270 ft 447 kts 93°
2026-04-21 14:01 39.57244 -101.74164 31477 ft 446 kts 93°
2026-04-21 14:01 39.56925 -101.70169 31669 ft 445 kts 93°
2026-04-21 14:02 39.56600 -101.66174 31869 ft 444 kts 93°
2026-04-21 14:02 39.56278 -101.62244 32070 ft 443 kts 93°
2026-04-21 14:02 39.55952 -101.58269 32258 ft 442 kts 93°
2026-04-21 14:03 39.55301 -101.50346 32617 ft 441 kts 93°
2026-04-21 14:03 39.54977 -101.46402 32783 ft 440 kts 93°
2026-04-21 14:03 39.54644 -101.42456 32865 ft 442 kts 93°
2026-04-21 14:04 39.53712 -101.34514 32930 ft 448 kts 97°
2026-04-21 14:04 39.52485 -101.26571 32969 ft 450 kts 98°
2026-04-21 14:05 39.51276 -101.18599 33012 ft 451 kts 97°
2026-04-21 14:05 39.50109 -101.10647 33042 ft 453 kts 97°
2026-04-21 14:06 39.48951 -101.02611 33037 ft 455 kts 97°
2026-04-21 14:06 39.47767 -100.94524 33038 ft 457 kts 98°
2026-04-21 14:07 39.46729 -100.87573 33013 ft 459 kts 97°
2026-04-21 14:07 39.45519 -100.79443 32984 ft 461 kts 98°
2026-04-21 14:08 39.44292 -100.71281 32949 ft 463 kts 98°
2026-04-21 14:08 39.43058 -100.63099 32923 ft 464 kts 98°
2026-04-21 14:09 39.41810 -100.54889 32906 ft 466 kts 98°
2026-04-21 14:09 39.40548 -100.46662 32907 ft 467 kts 98°
2026-04-21 14:10 39.39289 -100.38398 32908 ft 468 kts 98°
2026-04-21 14:10 39.38013 -100.30130 32908 ft 469 kts 98°
2026-04-21 14:11 39.36734 -100.21895 32932 ft 470 kts 98°
2026-04-21 14:11 39.35445 -100.13597 32960 ft 471 kts 98°
2026-04-21 14:12 39.34151 -100.05286 32982 ft 472 kts 98°
2026-04-21 14:12 39.32835 -99.96956 33003 ft 473 kts 98°
2026-04-21 14:13 39.31522 -99.88613 33013 ft 474 kts 98°
2026-04-21 14:13 39.30199 -99.80262 33008 ft 475 kts 98°
2026-04-21 14:14 39.28869 -99.71895 33003 ft 476 kts 98°
2026-04-21 14:14 39.27526 -99.63583 32987 ft 476 kts 98°
2026-04-21 14:15 39.26187 -99.55209 32967 ft 477 kts 99°
2026-04-21 14:15 39.24817 -99.46830 32948 ft 477 kts 99°
2026-04-21 14:16 39.23462 -99.38442 32936 ft 478 kts 99°
2026-04-21 14:16 39.22108 -99.30053 32938 ft 478 kts 99°
2026-04-21 14:17 39.20713 -99.21666 32940 ft 478 kts 99°
2026-04-21 14:17 39.19322 -99.13265 32941 ft 478 kts 99°
2026-04-21 14:18 39.17978 -99.04888 32947 ft 479 kts 99°
2026-04-21 14:18 39.16590 -98.96485 32956 ft 479 kts 99°
2026-04-21 14:19 39.15192 -98.88131 32966 ft 479 kts 99°
2026-04-21 14:19 39.13778 -98.79716 32970 ft 480 kts 100°
2026-04-21 14:20 39.12361 -98.71305 32976 ft 480 kts 100°
2026-04-21 14:20 39.10935 -98.62898 32973 ft 480 kts 100°
2026-04-21 14:21 39.09512 -98.54540 32967 ft 480 kts 100°
2026-04-21 14:21 39.08072 -98.46136 32962 ft 480 kts 100°
2026-04-21 14:22 39.06621 -98.37723 32959 ft 481 kts 100°
2026-04-21 14:22 39.05180 -98.29371 32966 ft 481 kts 101°
2026-04-21 14:23 39.03726 -98.20980 32966 ft 481 kts 101°
2026-04-21 14:23 39.02261 -98.12586 32974 ft 481 kts 101°
2026-04-21 14:24 39.00785 -98.04193 32975 ft 481 kts 101°
2026-04-21 14:24 38.98710 -97.95990 32994 ft 484 kts 109°
2026-04-21 14:25 38.96046 -97.88042 33011 ft 485 kts 112°
2026-04-21 14:25 38.93280 -97.80183 33024 ft 485 kts 112°
2026-04-21 14:26 38.90499 -97.72275 33044 ft 485 kts 112°
2026-04-21 14:26 38.87712 -97.64369 33049 ft 485 kts 112°
2026-04-21 14:27 38.84920 -97.56466 33045 ft 486 kts 112°
2026-04-21 14:27 38.82128 -97.48579 33037 ft 486 kts 113°
2026-04-21 14:28 38.79324 -97.40688 33033 ft 486 kts 113°
2026-04-21 14:28 38.77079 -97.32629 33026 ft 481 kts 96°
2026-04-21 14:28 38.76919 -97.28370 33031 ft 477 kts 83°
2026-04-21 14:29 38.77199 -97.25537 33034 ft 474 kts 78°
2026-04-21 14:29 38.77441 -97.21369 33024 ft 478 kts 90°
2026-04-21 14:29 38.76939 -97.17144 33029 ft 482 kts 103°
2026-04-21 14:29 38.75728 -97.13141 33031 ft 485 kts 116°
2026-04-21 14:30 38.73869 -97.09533 33034 ft 486 kts 129°
2026-04-21 14:30 38.69485 -97.02929 33039 ft 486 kts 122°
2026-04-21 14:30 38.67872 -96.99133 33038 ft 484 kts 111°
2026-04-21 14:31 38.66665 -96.95121 33039 ft 483 kts 108°
2026-04-21 14:31 38.64345 -96.87026 33042 ft 485 kts 110°
2026-04-21 14:32 38.61777 -96.79045 33045 ft 485 kts 111°
2026-04-21 14:32 38.59223 -96.71091 33044 ft 486 kts 111°
2026-04-21 14:33 38.56652 -96.63077 33046 ft 487 kts 111°
2026-04-21 14:33 38.54086 -96.55118 33055 ft 487 kts 111°
2026-04-21 14:34 38.51497 -96.47121 33070 ft 487 kts 111°
2026-04-21 14:34 38.48906 -96.39117 33080 ft 488 kts 112°
2026-04-21 14:35 38.46300 -96.31107 33089 ft 488 kts 112°
2026-04-21 14:35 38.43686 -96.23099 33105 ft 488 kts 112°
2026-04-21 14:36 38.41077 -96.15095 33103 ft 489 kts 112°
2026-04-21 14:36 38.38451 -96.07084 33106 ft 489 kts 112°
2026-04-21 14:37 38.35834 -95.99126 33098 ft 490 kts 112°
2026-04-21 14:37 38.33191 -95.91117 33120 ft 490 kts 112°
2026-04-21 14:38 38.30562 -95.83153 33125 ft 491 kts 112°
2026-04-21 14:38 38.27910 -95.75149 33121 ft 491 kts 113°
2026-04-21 14:39 38.25228 -95.67089 33125 ft 491 kts 113°
2026-04-21 14:39 38.22570 -95.59123 33118 ft 492 kts 113°
2026-04-21 14:40 38.19897 -95.51111 33119 ft 492 kts 113°
2026-04-21 14:40 38.17212 -95.43091 33113 ft 492 kts 113°
2026-04-21 14:41 38.14516 -95.35080 33118 ft 493 kts 113°
2026-04-21 14:41 38.11837 -95.27119 33124 ft 493 kts 114°
2026-04-21 14:42 38.09130 -95.19114 33127 ft 493 kts 114°
2026-04-21 14:42 38.06418 -95.11116 33128 ft 493 kts 114°
2026-04-21 14:43 38.03702 -95.03117 33021 ft 495 kts 114°
2026-04-21 14:43 38.02353 -94.99150 32505 ft 483 kts 114°
2026-04-21 14:43 38.01035 -94.95281 32005 ft 472 kts 114°
2026-04-21 14:43 37.99745 -94.91508 31502 ft 462 kts 114°
2026-04-21 14:44 37.98472 -94.87796 31013 ft 454 kts 114°
2026-04-21 14:44 37.97242 -94.84204 30546 ft 447 kts 114°
2026-04-21 14:44 37.96015 -94.80610 30041 ft 440 kts 114°
2026-04-21 14:44 37.94802 -94.77068 29482 ft 434 kts 114°
2026-04-21 14:45 37.93606 -94.73580 28935 ft 429 kts 114°
2026-04-21 14:45 37.92415 -94.70123 28394 ft 423 kts 114°
2026-04-21 14:45 37.91246 -94.66732 27869 ft 419 kts 114°
2026-04-21 14:45 37.90098 -94.63401 27358 ft 414 kts 114°
2026-04-21 14:46 37.88952 -94.60072 26846 ft 410 kts 114°
2026-04-21 14:46 37.87812 -94.56780 26354 ft 407 kts 114°
2026-04-21 14:46 37.86684 -94.53510 25867 ft 405 kts 115°
2026-04-21 14:46 37.85545 -94.50233 25391 ft 409 kts 114°
2026-04-21 14:47 37.84399 -94.46922 24924 ft 412 kts 115°
2026-04-21 14:47 37.83246 -94.43594 24466 ft 415 kts 115°
2026-04-21 14:47 37.82059 -94.40184 24017 ft 433 kts 115°
2026-04-21 14:47 37.80823 -94.36628 23558 ft 448 kts 115°
2026-04-21 14:48 37.79547 -94.32955 23032 ft 462 kts 114°
2026-04-21 14:48 37.78228 -94.29187 22529 ft 475 kts 115°
2026-04-21 14:48 37.76877 -94.25324 22038 ft 482 kts 115°
2026-04-21 14:48 37.75548 -94.21503 21551 ft 466 kts 115°
2026-04-21 14:49 37.74272 -94.17862 21060 ft 451 kts 115°
2026-04-21 14:49 37.73022 -94.14288 20574 ft 439 kts 115°
2026-04-21 14:49 37.71798 -94.10799 20091 ft 429 kts 115°
2026-04-21 14:49 37.70600 -94.07387 19614 ft 421 kts 115°
2026-04-21 14:50 37.69819 -94.05164 19306 ft 416 kts 115°
2026-04-21 14:50 37.68263 -94.00747 18687 ft 405 kts 115°
2026-04-21 14:50 37.67125 -93.97526 18191 ft 399 kts 115°
2026-04-21 14:50 37.66001 -93.94333 17676 ft 394 kts 115°
2026-04-21 14:51 37.64893 -93.91199 17159 ft 389 kts 115°
2026-04-21 14:51 37.63796 -93.88099 16645 ft 384 kts 115°
2026-04-21 14:51 37.62724 -93.85072 16147 ft 380 kts 115°
2026-04-21 14:51 37.61651 -93.82033 15658 ft 377 kts 114°
2026-04-21 14:52 37.60592 -93.79033 15170 ft 373 kts 114°
2026-04-21 14:52 37.59535 -93.76065 14693 ft 369 kts 114°
2026-04-21 14:52 37.58489 -93.73129 14177 ft 365 kts 114°
2026-04-21 14:52 37.57459 -93.70229 13339 ft 359 kts 114°
2026-04-21 14:53 37.56449 -93.67372 12522 ft 354 kts 114°
2026-04-21 14:53 37.55448 -93.64562 11723 ft 349 kts 115°
2026-04-21 14:53 37.54458 -93.61791 10949 ft 344 kts 115°
2026-04-21 14:53 37.53478 -93.59061 10174 ft 340 kts 116°
2026-04-21 14:54 37.52515 -93.56357 9354 ft 336 kts 116°
2026-04-21 14:54 37.51612 -93.53834 8572 ft 332 kts 116°
2026-04-21 14:54 37.50662 -93.51203 7774 ft 328 kts 116°
2026-04-21 14:54 37.49742 -93.48587 7011 ft 325 kts 114°
2026-04-21 14:55 37.48996 -93.45905 6237 ft 321 kts 113°
2026-04-21 14:55 37.48073 -93.43377 5442 ft 315 kts 119°
2026-04-21 14:55 37.47118 -93.40908 4662 ft 311 kts 119°
2026-04-21 14:55 37.46193 -93.38456 3896 ft 309 kts 119°
2026-04-21 14:56 37.45316 -93.36030 3438 ft 297 kts 118°
2026-04-21 14:56 37.44536 -93.33706 3223 ft 277 kts 122°
2026-04-21 14:56 37.43359 -93.32061 3126 ft 236 kts 161°
2026-04-21 14:56 37.41999 -93.31631 3137 ft 180 kts 181°
2026-04-21 14:57 37.40847 -93.31488 3134 ft 161 kts 184°
2026-04-21 14:57 37.39688 -93.31431 3114 ft 171 kts 187°
2026-04-21 14:57 37.38470 -93.31472 3122 ft 178 kts 192°
2026-04-21 14:57 37.37286 -93.31909 3098 ft 179 kts 206°
2026-04-21 14:58 37.36126 -93.32507 3075 ft 181 kts 207°
2026-04-21 14:58 37.35003 -93.33087 3089 ft 156 kts 207°
2026-04-21 14:58 37.34133 -93.33532 3051 ft 124 kts 208°
2026-04-21 14:58 37.33333 -93.33956 2894 ft 130 kts 208°
2026-04-21 14:59 37.32464 -93.34435 2510 ft 141 kts 208°
2026-04-21 14:59 37.31539 -93.34832 2356 ft 136 kts 205°
2026-04-21 14:59 37.30678 -93.35264 2345 ft 134 kts 203°
2026-04-21 14:59 37.29812 -93.35668 2339 ft 130 kts 207°
2026-04-21 15:00 37.28959 -93.36139 2296 ft 142 kts 207°
2026-04-21 15:00 37.28015 -93.36645 2146 ft 150 kts 206°
2026-04-21 15:00 37.27137 -93.37109 1827 ft 128 kts 204°
2026-04-21 15:00 37.26299 -93.37546 1580 ft 138 kts 203°
2026-04-21 15:01 37.25414 -93.37990 1328 ft 127 kts 202°
2026-04-21 15:01 37.24737 -93.38336 1273 ft 66 kts 203°
2026-04-21 15:01 37.24531 -93.38455 1271 ft 20 kts 226°
2026-04-21 15:01 37.24488 -93.38593 1272 ft 16 kts 221°
2026-04-21 15:02 37.24388 -93.38660 1272 ft 16 kts 205°
2026-04-21 15:02 37.24297 -93.38723 1275 ft 13 kts 211°
2026-04-21 15:02 37.24227 -93.38776 1277 ft 11 kts 211°
2026-04-21 15:02 37.24145 -93.38839 1277 ft 12 kts 212°
2026-04-21 15:03 37.24085 -93.38925 1278 ft 20 kts 261°
2026-04-21 15:03 37.24125 -93.39113 1273 ft 22 kts 292°
2026-04-21 15:03 37.24178 -93.39292 1271 ft 22 kts 283°
2026-04-21 15:03 37.24123 -93.39401 1266 ft 12 kts 202°
2026-04-21 15:04 37.24064 -93.39432 1273 ft 7 kts 202°
2026-04-21 15:04 37.24024 -93.39466 1267 ft 8 kts 245°
2026-04-21 15:04 37.24027 -93.39522 1267 ft 3 kts 285°
2026-04-21 15:04 37.24029 -93.39530 1267 ft 0 kts 285°
2026-04-21 15:10 37.24029 -93.39531 1265 ft 0 kts 285°
2026-04-21 15:17 37.24029 -93.39532 1265 ft 0 kts 285°